Medicine Lodge, KS

11:43 AM CST on December 09, 2016 (GMT -0600)
Medicine Lodge

Weather History for KP28 - June, 2013

Change the Weather History Date:

Saturday, June 8, 2013

  Actual Average Record
Temperature  
Mean Temperature 74 °F 75 °F  
Max Temperature 86 °F 87 °F 106 °F (2011)
Min Temperature 62 °F 63 °F 46 °F (2003)
Degree Days  
Heating Degree Days 0 0  
Month to date heating degree days 4 0  
Since 1 June heating degree days 4 0  
Since 1 July heating degree days 4523 4455  
Cooling Degree Days 9 10  
Month to date cooling degree days 29 70  
Year to date cooling degree days 172 226  
Since 1 June cooling degree days 29 70  
Growing Degree Days 23 (Base 50)    
Moisture  
Dew Point 57 °F    
Average Humidity 65    
Maximum Humidity 93    
Minimum Humidity 37    
Precipitation  
Precipitation 0.44 in 0.16 in 4.52 in (1898)
Month to date precipitation 1.00 1.24  
Year to date precipitation 11.35 10.98  
Snow  
Snow 0.00 in 0.00 in - ()
Month to date snowfall 0.0 0.0  
Since 1 June snowfall 0.0 0.0  
Since 1 July snowfall 25.0 8.5  
Snow Depth 0.00 in    
Sea Level Pressure  
Sea Level Pressure 29.77 in    
Wind  
Wind Speed 13 mph (SSE)    
Max Wind Speed 29 mph    
Max Gust Speed 39 mph    
T = Trace of Precipitation, MM = Missing Value Source: NWS Daily Summary

Daily Weather History Graph

Daily Weather History Graph

Search for Another Location

Airport or City:

Trip Planner

Search our weather history database for the weather conditions in past years. The results will help you decide how hot, cold, wet, or windy it might be!

Date:

Astronomy

Jun. 08, 2013 Rise Set
Actual Time 6:13 AM CDT 8:53 PM CDT
Civil Twilight 5:42 AM CDT 9:24 PM CDT
Nautical Twilight 5:04 AM CDT 10:02 PM CDT
Astronomical Twilight 4:21 AM CDT 10:45 PM CDT
Moon 6:21 AM CDT (6/8) 8:58 PM CDT (6/8)
Length of Visible Light 15h 41m
Length of Day
14h 39m
New Moon, 0% of the Moon is Illuminated
Jun 8
New Moon
Jun 16
First Quarter
Jun 23
Full
Jun 29
Last Quarter
Jul 8
New

Hourly Weather History & Observations

Time (CDT) Temp. Heat Index Dew Point Humidity Pressure Visibility Wind Dir Wind Speed Gust Speed Precip Events Conditions
12:56 AM 64.9 °F - 55.9 °F 73% 29.86 in - ESE 6.9 mph - N/A   Unknown
1:56 AM 63.0 °F - 57.0 °F 81% 29.86 in - ESE 5.8 mph - N/A   Unknown
2:56 AM 64.0 °F - 57.0 °F 78% 29.86 in - SE 6.9 mph - N/A   Unknown
3:56 AM 63.0 °F - 57.0 °F 81% 29.82 in - SSE 9.2 mph - N/A   Unknown
4:56 AM 63.0 °F - 57.0 °F 81% 29.81 in - SSE 9.2 mph - N/A   Unknown
5:56 AM 62.1 °F - 57.0 °F 84% 29.81 in - SSE 8.1 mph - N/A   Unknown
6:56 AM 63.0 °F - 57.0 °F 81% 29.80 in - SSE 9.2 mph - N/A   Unknown
7:56 AM 64.0 °F - 57.0 °F 78% 29.80 in - SSE 8.1 mph - N/A   Unknown
8:56 AM 68.0 °F - 57.0 °F 68% 29.79 in - South 16.1 mph 21.9 mph N/A   Unknown
9:56 AM 72.0 °F - 55.0 °F 55% 29.78 in - South 21.9 mph 29.9 mph N/A   Unknown
10:56 AM 77.0 °F - 55.9 °F 48% 29.76 in - South 21.9 mph 26.5 mph N/A   Unknown
11:56 AM 80.1 °F 80.1 °F 55.0 °F 42% 29.74 in - South 21.9 mph 33.4 mph N/A   Unknown
12:56 PM 82.0 °F 81.6 °F 55.9 °F 41% 29.72 in - SSW 24.2 mph 32.2 mph N/A   Unknown
1:56 PM 81.0 °F 80.7 °F 55.0 °F 41% 29.71 in - South 23.0 mph 33.4 mph N/A   Unknown
2:56 PM 84.9 °F 83.6 °F 55.0 °F 36% 29.68 in - SSW 21.9 mph 36.8 mph N/A   Unknown
3:56 PM 82.9 °F 81.8 °F 53.1 °F 36% 29.69 in - South 20.7 mph 28.8 mph N/A   Unknown
4:56 PM 84.9 °F 83.6 °F 55.0 °F 36% 29.65 in - South 17.3 mph 31.1 mph N/A   Unknown
5:56 PM 81.0 °F 80.5 °F 54.0 °F 39% 29.68 in - South 12.7 mph 25.3 mph N/A   Unknown
6:56 PM 77.0 °F - 57.0 °F 50% 29.72 in - SSE 5.8 mph - N/A   Unknown
7:56 PM 66.9 °F - 62.1 °F 84% 29.75 in - SE 16.1 mph - 0.35 in   Unknown
8:03 PM 66.0 °F - 63.0 °F 90% 29.74 in - SE 27.6 mph 39.1 mph 0.01 in   Unknown
8:56 PM 66.0 °F - 61.0 °F 84% 29.76 in - Variable 3.5 mph - 0.01 in   Unknown
9:56 PM 64.9 °F - 61.0 °F 87% 29.79 in - SSE 5.8 mph - 0.08 in   Unknown
10:56 PM 64.9 °F - 62.1 °F 90% 29.82 in - Variable 4.6 mph - N/A   Unknown
11:56 PM 63.0 °F - 61.0 °F 93% 29.84 in - NW 3.5 mph - N/A   Unknown